Tracking 32991 objects as of 23-Jan-2026
HD Live streaming from Space Station
objects crossing your sky now

STARLINK-31149

Track STARLINK-31149 now!
10-day predictions
STARLINK-31149 is classified as:


NORAD ID: 58863
Int'l Code: 2024-019L
Perigee: 489.0 km
Apogee: 491.4 km
Inclination: 43.0 °
Period: 94.3 minutes
Semi major axis: 6861 km
RCS: Unknown
Launch date: January 29, 2024
Source: United States (US)
Launch site: AIR FORCE EASTERN TEST RANGE (AFETR)
Your satellite tracking list
Your tracking list is empty




NASA's NSSDC Master Catalog

Two Line Element Set (TLE):
1 58863U 24019L   26022.37079870  .00000095  00000-0  12984-4 0  9991
2 58863  42.9933 150.0668 0001740 120.3767 239.7256 15.27576361112007
Source of the keplerian elements: AFSPC